Regional Weather Roundup
Issued by NWS

Home | Current Version | Previous Version | Graphics & Text | Print | Product List | Glossary On
Versions: 1 2 3 4 5 6 7 8 9 10 11 12 13 14 15 16 17 18 19 20 21 22 23 24 25 26 27 28 29 30 31 32 33 34 35 36 37 38 39 40 41 42 43 44 45 46 47 48 49 50
000
ASUS43 KDTX 252210
RWRMI
MICHIGAN HOURLY REGIONAL WEATHER ROUNDUP
NATIONAL WEATHER SERVICE DETROIT/PONTIAC MI
ISSUED BY NATIONAL WEATHER SERVICE GRAND RAPIDS MI
500 PM EST SAT FEB 25 2017

NOTE: "FAIR" INDICATES FEW OR NO CLOUDS BELOW 12,000 FEET WITH NO
SIGNIFICANT WEATHER AND/OR OBSTRUCTION TO VISIBILITY.

MIZ047>049-052>055-059>063-066>070-074>076-081>083-252300-
SOUTHEAST LOWER MICHIGAN

CITY           SKY/WX    TMP DP  RH WIND       PRES   REMARKS
ADRIAN         FLURRIES  27  18  69 W15G24    29.84R WCI  15
ALMA           CLOUDY    26  17  69 W14       29.79R WCI  14
ANN ARBOR      CLOUDY    28  18  66 SW22G28   29.79R WCI  14
BAD AXE        CLOUDY    28  17  63 W15G29    29.68R WCI  17
DETROIT CITY   FLURRIES  30  19  63 W16G31    29.77R WCI  19
DETROIT        LGT SNOW  29  22  75 W21       29.80R WCI  16
FLINT          CLOUDY    27  16  63 W22G32    29.76R WCI  13
GROSSE ILE     FLURRIES  30  19  63 W14G24    29.78R WCI  20
HILLSDALE      FLURRIES  25  18  74 W17G26    29.81R WCI  11
HOWELL         CLOUDY    26  16  65 W18G26    29.78R WCI  13

CITY           SKY/WX    TMP DP  RH WIND       PRES   REMARKS
JACKSON        FLURRIES  25  15  66 W15G28    29.81R WCI  13
LANSING        LGT SNOW  25  15  66 W17       29.81R WCI  12
MASON          FLURRIES  26  18  71 W23G29    29.80R WCI  11
MONROE         FLURRIES  30  20  68 W21G32    29.81R WCI  17
MT. CLEMENS    FLURRIES  30  17  56 W23G31    29.73R WCI  17
PONTIAC        FLURRIES  27  19  72 W24       29.74R WCI  12
PORT HOPE        N/A     29  18  63 W18G28    29.65R WCI  16
PORT HURON     FLURRIES  30  21  69 W7G20     29.73R WCI  23
TRI CITIES     LGT SNOW  27  18  69 W23       29.75R WCI  12
YPSILANTI      FLURRIES  30  19  63 W23G35    29.79R WCI  17
$$
MIZ043>046-050>051-056>058-064>065-071>073-077>080-252300-
SOUTHWEST LOWER MICHIGAN

CITY           SKY/WX    TMP DP  RH WIND       PRES   REMARKS
BATTLE CREEK   LGT SNOW  24  19  81 W14G24    29.84R WCI  12
BENTON HARBOR  CLOUDY    24  14  65 W17G25    29.91R WCI  11
BIG RAPIDS     FLURRIES  24  17  77 W12G18    29.76R WCI  13
COLDWATER      FLURRIES  26  17  71 W20G28    29.85R WCI  12
HOLLAND        LGT SNOW  23  15  71 W15G24    29.88R WCI  10
GRAND RAPIDS   LGT SNOW  23  15  71 W21G28    29.83R WCI   8
KALAMAZOO      LGT SNOW  24  17  74 W16G23    29.86R WCI  11
MARSHALL       CLOUDY    24  18  77 W20       29.83R WCI  10
MOUNT PLEASANT FLURRIES  25  19  76 W13G24    29.76R WCI  14
MUSKEGON       LGT SNOW  24  16  71 W18G28    29.86R WCI  10
STURGIS        FLURRIES  25  18  77 W12G21    29.86R WCI  14
$$
MIZ016>042-252300-
NORTHERN LOWER MICHIGAN

CITY           SKY/WX    TMP DP  RH WIND       PRES   REMARKS
ALPENA         LGT SNOW  25  20  81 W14G23    29.63R WCI  13
BEAVER ISLAND  LGT SNOW  23  17  80 W13G24    29.70R WCI  11
BELLAIRE       LGT SNOW  26  19  74 W8        29.72R WCI  17
CADILLAC       LGT SNOW  23  18  80 W8        29.70R WCI  14
CHARLEVOIX     CLOUDY    25  19  77 W20G26    29.73R HAZE    WCI  11
GAYLORD        SNOW      22  16  78 W12G26    29.64R VSB 1/2 WCI  10
HOUGHTON LAKE  FLURRIES  23  15  71 W14       29.69R WCI  11
MANISTEE       FLURRIES  25  17  72 W17       29.78R WCI  12
OSCODA         PTSUNNY   29  14  53 W21G28    29.66R WCI  16
PELLSTON       MIX PCPN  23  15  71 W26G36    29.66R WCI   6
TRAVERSE CITY  LGT SNOW  26  18  71 W16       29.72R WCI  14
LUDINGTON      FLURRIES  25  17  73 W9G25     29.81R WCI  15
$$
MIZ007>008-015-252300-
EASTERN UPPER MICHIGAN

CITY           SKY/WX    TMP DP  RH WIND       PRES   REMARKS
KINROSS        LGT SNOW  21  16  81 NW15      29.59R WCI   8
MACKINAC ISLAN LGT SNOW  23  19  83 W18G30    29.62R WCI   9
NEWBERRY       LGT SNOW  21  16  83 W20G25    29.63R WCI   5
S. S. MARIE    SNOW      22  17  81 W12       29.58R VSB 1/2 WCI  10
$$
MIZ004>006-011>014-085-252300-
CENTRAL UPPER MICHIGAN

CITY           SKY/WX    TMP DP  RH WIND       PRES   REMARKS
MANISTIQUE     CLOUDY    22  13  67 NW13G22   29.70R WCI  10
ESCANABA       PTSUNNY   25  12  58 W18G24    29.74R WCI  11
MENOMINEE      CLOUDY    25  13  60 W9G16     29.79  WCI  15
SAWYER-GWINN   CLOUDY    19  12  73 W16       29.69R WCI   5
$$
MIZ001>003-009>011-084-252300-
WESTERN UPPER MICHIGAN

CITY           SKY/WX    TMP DP  RH WIND       PRES   REMARKS
IRON MOUNTAIN  CLOUDY    21   8  57 W20       29.73R WCI   6
HOUGHTON       CLOUDY    21  11  65 W20       29.68R WCI   6
COPPER HARBOR    N/A     23  13  65 N15G28    29.68R WCI  10
IRONWOOD       MOSUNNY   23   9  55 W14G21    29.77R WCI  11
$$

ABBREVIATIONS USED IN REMARKS
   TC - TEMPERATURE IN CELSIUS
  WCI - WIND CHILL INDEX
   HX - HEAT INDEX
  VSB - VISIBILITY





USA.gov is the U.S. government's official web portal to all federal, state and local government web resources and services.